Schneifelwetter: Wetterstation Hallschlag, 537 m . NN
Wetterdaten: Dienstag, 03.04.2007
Datum Zeit Temp. A. Temp. 2 Feuchte A. Luftdruck Regen Wind Richtung Richtung Sonnenschein Helligkeit T Regen Taupunkt Windchill
03.04.2007 00:00 2,7 C 0,5 C 70 % 1019 hPa 0,0 l/m 3,7 km/h (1 Bft) W-SW 250 0 min 0 lux 0,00 min -2,2 C 2,7 C
03.04.2007 00:15 2,4 C 0,0 C 71 % 1019 hPa 0,0 l/m 0,1 km/h (0 Bft) W-SW 250 0 min 0 lux 0,00 min -2,3 C 2,4 C
03.04.2007 00:30 2,7 C 0,0 C 72 % 1019 hPa 0,0 l/m 3,4 km/h (1 Bft) W-SW 250 0 min 0 lux 0,00 min -1,8 C 2,7 C
03.04.2007 00:45 2,3 C -0,2 C 72 % 1019 hPa 0,0 l/m 6,6 km/h (2 Bft) W-SW 250 0 min 0 lux 0,00 min -2,2 C 2,1 C
03.04.2007 01:00 1,9 C -0,5 C 72 % 1019 hPa 0,0 l/m 0,1 km/h (0 Bft) W-SW 250 0 min 0 lux 0,00 min -2,6 C 1,9 C
03.04.2007 01:15 1,7 C -0,9 C 73 % 1018 hPa 0,0 l/m 0,0 km/h (0 Bft) W-SW 250 0 min 0 lux 0,00 min -2,6 C 1,7 C
03.04.2007 01:30 1,5 C -1,0 C 74 % 1018 hPa 0,0 l/m 0,0 km/h (0 Bft) W-SW 250 0 min 0 lux 0,00 min -2,6 C 1,5 C
03.04.2007 01:45 1,3 C -1,2 C 75 % 1018 hPa 0,0 l/m 0,4 km/h (0 Bft) W-SW 250 0 min 0 lux 0,00 min -2,6 C 1,3 C
03.04.2007 02:00 1,2 C -1,5 C 75 % 1018 hPa 0,0 l/m 3,2 km/h (1 Bft) W-SW 250 0 min 0 lux 0,00 min -2,7 C 1,2 C
03.04.2007 02:15 1,1 C -1,7 C 76 % 1018 hPa 0,0 l/m 3,6 km/h (1 Bft) W-SW 250 0 min 0 lux 0,00 min -2,6 C 1,1 C
03.04.2007 02:30 1,0 C -1,6 C 77 % 1018 hPa 0,0 l/m 0,0 km/h (0 Bft) W-SW 250 0 min 0 lux 0,00 min -2,6 C 1,0 C
03.04.2007 02:45 0,8 C -1,9 C 76 % 1018 hPa 0,0 l/m 3,3 km/h (1 Bft) W-SW 250 0 min 0 lux 0,00 min -2,9 C 0,8 C
03.04.2007 03:00 1,1 C -1,8 C 78 % 1018 hPa 0,0 l/m 3,7 km/h (1 Bft) N-NW45 345 0 min 0 lux 0,00 min -2,3 C 1,1 C
03.04.2007 03:15 0,9 C -1,9 C 78 % 1018 hPa 0,0 l/m 0,0 km/h (0 Bft) N-NW 345 0 min 0 lux 0,00 min -2,5 C 0,9 C
03.04.2007 03:30 0,7 C -2,0 C 78 % 1018 hPa 0,0 l/m 0,0 km/h (0 Bft) N-NW 345 0 min 0 lux 0,00 min -2,7 C 0,7 C
03.04.2007 03:45 0,5 C -1,8 C 78 % 1017 hPa 0,0 l/m 0,4 km/h (0 Bft) N-NW 335 0 min 0 lux 0,00 min -2,9 C 0,5 C
03.04.2007 04:00 0,6 C -1,9 C 79 % 1017 hPa 0,0 l/m 0,0 km/h (0 Bft) N-NW 330 0 min 0 lux 0,00 min -2,6 C 0,6 C
03.04.2007 04:15 0,6 C -1,8 C 79 % 1017 hPa 0,0 l/m 0,0 km/h (0 Bft) NW 325 0 min 0 lux 0,00 min -2,6 C 0,6 C
03.04.2007 04:30 0,9 C -1,8 C 79 % 1017 hPa 0,0 l/m 0,0 km/h (0 Bft) NW 325 0 min 0 lux 0,00 min -2,3 C 0,9 C
03.04.2007 04:45 0,7 C -1,7 C 80 % 1017 hPa 0,0 l/m 0,7 km/h (0 Bft) NW 325 0 min 0 lux 0,00 min -2,3 C 0,7 C
03.04.2007 05:00 0,9 C -1,7 C 79 % 1017 hPa 0,0 l/m 0,0 km/h (0 Bft) NW 315 0 min 0 lux 0,00 min -2,3 C 0,9 C
03.04.2007 05:15 1,2 C -1,5 C 80 % 1017 hPa 0,0 l/m 0,4 km/h (0 Bft) NW 310 0 min 0 lux 0,00 min -1,9 C 1,2 C
03.04.2007 05:30 1,1 C -1,7 C 80 % 1017 hPa 0,0 l/m 2,1 km/h (1 Bft) W-SW 240 0 min 0 lux 0,00 min -2,0 C 1,1 C
03.04.2007 05:45 1,5 C -1,1 C 81 % 1016 hPa 0,0 l/m 2,8 km/h (1 Bft) W-SW22.5 245 0 min 0 lux 0,00 min -1,4 C 1,5 C
03.04.2007 06:00 1,8 C -1,0 C 80 % 1016 hPa 0,0 l/m 0,5 km/h (0 Bft) N-NW22.5 330 0 min 0 lux 0,00 min -1,3 C 1,8 C
03.04.2007 06:15 1,5 C -1,0 C 80 % 1016 hPa 0,0 l/m 0,7 km/h (0 Bft) N-NW 345 0 min 0 lux 0,00 min -1,6 C 1,5 C
03.04.2007 06:30 2,1 C -0,6 C 83 % 1016 hPa 0,0 l/m 10,2 km/h (2 Bft) N22.5 10 0 min 0 lux 0,00 min -0,5 C -1,3 C
03.04.2007 06:45 2,7 C -0,2 C 83 % 1016 hPa 0,0 l/m 13,9 km/h (3 Bft) N45 5 0 min 0 lux 0,00 min 0,1 C -3,1 C
03.04.2007 07:00 2,9 C 0,2 C 82 % 1016 hPa 0,0 l/m 13,0 km/h (3 Bft) N-NW45 345 0 min 139 lux 0,00 min 0,1 C -2,3 C
03.04.2007 07:15 2,8 C -0,1 C 80 % 1016 hPa 0,0 l/m 10,0 km/h (2 Bft) N67.5 5 0 min 601 lux 0,00 min -0,3 C -0,4 C
03.04.2007 07:30 2,4 C -0,2 C 80 % 1017 hPa 0,0 l/m 7,1 km/h (2 Bft) N67.5 10 0 min 1,86 klux 0,00 min -0,7 C 1,7 C
03.04.2007 07:45 2,5 C 0,2 C 80 % 1017 hPa 0,0 l/m 9,4 km/h (2 Bft) N-NW22.5 330 0 min 2,51 klux 0,00 min -0,6 C -0,2 C
03.04.2007 08:00 2,7 C 0,7 C 80 % 1016 hPa 0,0 l/m 11,0 km/h (2 Bft) N45 5 0 min 5,36 klux 0,00 min -0,4 C -1,2 C
03.04.2007 08:15 3,0 C 1,4 C 78 % 1016 hPa 0,0 l/m 19,0 km/h (3 Bft) N-NW45 330 0 min 9,3 klux 0,00 min -0,5 C -5,3 C
03.04.2007 08:30 3,5 C 2,1 C 76 % 1016 hPa 0,0 l/m 19,2 km/h (3 Bft) N45 350 0 min 12,9 klux 0,00 min -0,3 C -4,8 C
03.04.2007 08:45 3,9 C 2,8 C 74 % 1017 hPa 0,0 l/m 20,6 km/h (4 Bft) N-NW67.5 335 0 min 17,8 klux 0,00 min -0,3 C -4,8 C
03.04.2007 09:00 4,3 C 3,6 C 74 % 1017 hPa 0,0 l/m 15,4 km/h (3 Bft) N-NW67.5 335 0 min 22,6 klux 0,00 min 0,1 C -2,0 C
03.04.2007 09:16 5,4 C 4,5 C 70 % 1016 hPa 0,0 l/m 15,2 km/h (3 Bft) N45 10 0 min 28,0 klux 0,00 min 0,4 C -0,5 C
03.04.2007 09:31 6,0 C 5,3 C 68 % 1017 hPa 0,0 l/m 17,8 km/h (3 Bft) N22.5 360 0 min 33,3 klux 0,00 min 0,6 C -1,0 C
03.04.2007 09:45 6,7 C 6,0 C 64 % 1016 hPa 0,0 l/m 19,8 km/h (3 Bft) N22.5 5 0 min 37,7 klux 0,00 min 0,4 C -0,9 C
03.04.2007 10:00 7,0 C 6,6 C 63 % 1016 hPa 0,0 l/m 23,7 km/h (4 Bft) N67.5 360 0 min 44,4 klux 0,00 min 0,4 C -1,8 C
03.04.2007 10:15 7,2 C 7,1 C 61 % 1016 hPa 0,0 l/m 25,3 km/h (4 Bft) N67.5 360 15 min 50,4 klux 0,00 min 0,2 C -2,0 C
03.04.2007 10:30 7,3 C 7,6 C 62 % 1016 hPa 0,0 l/m 25,4 km/h (4 Bft) N67.5 10 15 min 54,1 klux 0,00 min 0,5 C -1,9 C
03.04.2007 10:46 7,8 C 8,2 C 62 % 1016 hPa 0,0 l/m 31,6 km/h (5 Bft) N22.5 5 16 min 57,8 klux 0,00 min 1,0 C -2,8 C
03.04.2007 11:00 7,1 C 8,4 C 65 % 1016 hPa 0,0 l/m 28,0 km/h (4 Bft) N45 10 14 min 64,1 klux 0,00 min 1,0 C -2,9 C
03.04.2007 11:15 7,0 C 8,9 C 66 % 1016 hPa 0,0 l/m 26,9 km/h (4 Bft) N-NO67.5 20 15 min 71,9 klux 0,00 min 1,1 C -2,8 C
03.04.2007 11:30 7,0 C 9,2 C 65 % 1016 hPa 0,0 l/m 27,0 km/h (4 Bft) N-NO22.5 15 15 min 67,8 klux 0,00 min 0,9 C -2,8 C
03.04.2007 11:45 6,8 C 9,5 C 66 % 1016 hPa 0,0 l/m 24,6 km/h (4 Bft) N67.5 360 15 min 62,1 klux 0,00 min 0,9 C -2,4 C
03.04.2007 12:01 7,0 C 10,2 C 68 % 1016 hPa 0,0 l/m 25,5 km/h (4 Bft) N-NO67.5 25 16 min 69,5 klux 0,00 min 1,5 C -2,4 C
03.04.2007 12:15 7,0 C 10,7 C 68 % 1016 hPa 0,0 l/m 23,0 km/h (4 Bft) N45 360 14 min 69,0 klux 0,00 min 1,5 C -1,6 C
03.04.2007 12:30 7,0 C 10,9 C 68 % 1016 hPa 0,0 l/m 26,0 km/h (4 Bft) N-NO45 20 15 min 63,2 klux 0,00 min 1,5 C -2,5 C
03.04.2007 12:45 6,7 C 10,8 C 70 % 1016 hPa 0,0 l/m 26,7 km/h (4 Bft) N67.5 10 15 min 66,8 klux 0,00 min 1,6 C -3,1 C
03.04.2007 13:00 6,9 C 11,4 C 67 % 1016 hPa 0,0 l/m 27,3 km/h (4 Bft) NO45 40 15 min 65,8 klux 0,00 min 1,2 C -3,0 C
03.04.2007 13:15 7,1 C 11,9 C 67 % 1016 hPa 0,0 l/m 31,1 km/h (5 Bft) N45 350 15 min 87,7 klux 0,00 min 1,4 C -3,7 C
03.04.2007 13:31 7,4 C 13,1 C 64 % 1015 hPa 0,0 l/m 29,5 km/h (5 Bft) N-NO45 25 16 min 85,5 klux 0,00 min 1,0 C -2,9 C
03.04.2007 13:45 7,1 C 12,5 C 64 % 1015 hPa 0,0 l/m 34,4 km/h (5 Bft) N-NO67.5 15 14 min 78,4 klux 0,00 min 0,8 C -4,4 C
03.04.2007 14:00 7,2 C 12,6 C 67 % 1015 hPa 0,0 l/m 33,7 km/h (5 Bft) N-NO45 15 15 min 77,5 klux 0,00 min 1,5 C -4,1 C
03.04.2007 14:15 7,4 C 12,9 C 64 % 1015 hPa 0,0 l/m 33,7 km/h (5 Bft) N67.5 350 15 min 86,7 klux 0,00 min 1,0 C -3,8 C
03.04.2007 14:30 7,0 C 11,8 C 65 % 1015 hPa 0,0 l/m 34,8 km/h (5 Bft) N45 5 15 min 83,6 klux 0,00 min 0,9 C -4,6 C
03.04.2007 14:46 7,4 C 13,0 C 65 % 1014 hPa 0,0 l/m 35,9 km/h (5 Bft) N-NW67.5 340 16 min 89,5 klux 0,00 min 1,3 C -4,2 C
03.04.2007 15:00 8,2 C 14,4 C 62 % 1014 hPa 0,0 l/m 33,5 km/h (5 Bft) N-NW67.5 335 14 min 107 klux 0,00 min 1,4 C -2,6 C
03.04.2007 15:15 7,2 C 11,3 C 64 % 1014 hPa 0,0 l/m 35,0 km/h (5 Bft) N67.5 10 0 min 31,4 klux 0,00 min 0,9 C -4,4 C
03.04.2007 15:30 7,2 C 10,3 C 64 % 1014 hPa 0,0 l/m 28,3 km/h (4 Bft) N-NW67.5 340 0 min 40,2 klux 0,00 min 0,9 C -2,9 C
03.04.2007 15:45 6,7 C 9,0 C 67 % 1014 hPa 0,0 l/m 26,5 km/h (4 Bft) N-NW45 335 0 min 28,3 klux 0,00 min 1,0 C -3,1 C
03.04.2007 16:00 5,9 C 7,5 C 71 % 1014 hPa 0,0 l/m 31,5 km/h (5 Bft) N-NW67.5 330 0 min 10,8 klux 0,00 min 1,1 C -5,5 C
03.04.2007 16:16 5,4 C 6,3 C 74 % 1014 hPa 0,0 l/m 27,7 km/h (4 Bft) N45 350 0 min 9,3 klux 0,00 min 1,1 C -5,2 C
03.04.2007 16:30 5,1 C 5,6 C 76 % 1014 hPa 0,0 l/m 22,5 km/h (4 Bft) N45 350 0 min 9,7 klux 0,00 min 1,2 C -4,0 C
03.04.2007 16:45 4,6 C 4,7 C 79 % 1014 hPa 0,0 l/m 32,7 km/h (5 Bft) N67.5 360 0 min 9,5 klux 0,00 min 1,3 C -7,6 C
03.04.2007 17:00 5,1 C 5,1 C 79 % 1013 hPa 0,0 l/m 27,1 km/h (4 Bft) N-NW45 335 0 min 18,7 klux 0,00 min 1,8 C -5,4 C
03.04.2007 17:15 5,2 C 5,2 C 77 % 1013 hPa 0,0 l/m 28,4 km/h (4 Bft) N45 360 0 min 12,0 klux 0,00 min 1,5 C -5,7 C
03.04.2007 17:31 5,1 C 5,2 C 77 % 1013 hPa 0,0 l/m 39,7 km/h (6 Bft) N67.5 350 0 min 10,9 klux 0,00 min 1,4 C -8,3 C
03.04.2007 17:45 4,8 C 5,0 C 74 % 1013 hPa 0,0 l/m 34,3 km/h (5 Bft) N45 355 0 min 8,31 klux 0,00 min 0,6 C -7,7 C
03.04.2007 18:00 4,4 C 4,6 C 74 % 1014 hPa 0,0 l/m 34,2 km/h (5 Bft) N67.5 355 0 min 4,43 klux 0,00 min 0,2 C -8,2 C
03.04.2007 18:15 4,1 C 4,1 C 75 % 1014 hPa 0,0 l/m 35,4 km/h (5 Bft) N-NO45 15 0 min 2,75 klux 0,00 min 0,1 C -8,9 C
03.04.2007 18:30 3,9 C 3,7 C 74 % 1014 hPa 0,0 l/m 33,3 km/h (5 Bft) N67.5 10 0 min 3,94 klux 0,00 min -0,3 C -8,8 C
03.04.2007 18:46 3,9 C 3,1 C 73 % 1013 hPa 0,0 l/m 22,3 km/h (4 Bft) N67.5 355 0 min 28,2 klux 0,00 min -0,5 C -5,5 C
03.04.2007 19:00 4,0 C 2,9 C 71 % 1013 hPa 0,0 l/m 20,2 km/h (4 Bft) N-NW67.5 345 0 min 24,5 klux 0,00 min -0,8 C -4,5 C
03.04.2007 19:15 4,0 C 3,0 C 71 % 1013 hPa 0,0 l/m 26,9 km/h (4 Bft) N67.5 360 0 min 19,6 klux 0,00 min -0,8 C -6,9 C
03.04.2007 19:30 4,1 C 3,3 C 72 % 1013 hPa 0,0 l/m 32,0 km/h (5 Bft) N22.5 5 0 min 2,85 klux 0,00 min -0,5 C -8,2 C
03.04.2007 19:45 4,0 C 3,5 C 73 % 1013 hPa 0,0 l/m 24,9 km/h (4 Bft) N67.5 350 0 min 2,53 klux 0,00 min -0,4 C -6,3 C
03.04.2007 20:00 4,1 C 3,5 C 73 % 1013 hPa 0,0 l/m 28,3 km/h (4 Bft) N45 5 0 min 479 lux 0,00 min -0,3 C -7,2 C
03.04.2007 20:16 3,9 C 3,3 C 74 % 1013 hPa 0,0 l/m 28,8 km/h (4 Bft) N45 355 0 min 310 lux 0,00 min -0,3 C -7,6 C
03.04.2007 20:30 3,7 C 3,1 C 76 % 1013 hPa 0,0 l/m 25,6 km/h (4 Bft) N67.5 355 0 min 94 lux 0,00 min -0,1 C -6,9 C
03.04.2007 20:45 3,3 C 2,7 C 79 % 1013 hPa 0,3 l/m 17,0 km/h (3 Bft) N45 10 0 min 13 lux 15,00 min 0,0 C -4,0 C
03.04.2007 21:00 2,9 C 2,4 C 81 % 1013 hPa 0,0 l/m 21,6 km/h (4 Bft) N67.5 355 0 min 0 lux 0,00 min -0,0 C -6,5 C
03.04.2007 21:15 2,8 C 2,1 C 82 % 1013 hPa 0,0 l/m 16,0 km/h (3 Bft) N22.5 10 0 min 0 lux 0,00 min 0,0 C -4,1 C
03.04.2007 21:30 3,0 C 2,2 C 83 % 1013 hPa 0,0 l/m 21,8 km/h (4 Bft) N67.5 5 0 min 0 lux 0,00 min 0,4 C -6,5 C
03.04.2007 21:46 3,3 C 2,4 C 85 % 1013 hPa 0,0 l/m 29,6 km/h (5 Bft) N67.5 5 0 min 0 lux 0,00 min 1,0 C -8,7 C
03.04.2007 22:00 2,9 C 2,2 C 85 % 1013 hPa 0,0 l/m 31,2 km/h (5 Bft) N67.5 10 0 min 0 lux 0,00 min 0,6 C -9,7 C
03.04.2007 22:15 2,7 C 2,2 C 87 % 1013 hPa 0,3 l/m 32,7 km/h (5 Bft) N67.5 350 0 min 0 lux 15,00 min 0,8 C -10,3 C
03.04.2007 22:30 2,7 C 2,3 C 88 % 1013 hPa 0,0 l/m 28,1 km/h (4 Bft) N67.5 355 0 min 0 lux 0,00 min 0,9 C -9,1 C
03.04.2007 22:45 2,8 C 2,4 C 89 % 1013 hPa 0,0 l/m 37,8 km/h (5 Bft) N-NO22.5 20 0 min 0 lux 0,00 min 1,2 C -11,3 C
03.04.2007 23:00 3,0 C 2,5 C 89 % 1013 hPa 0,0 l/m 39,2 km/h (6 Bft) N-NO45 25 0 min 0 lux 0,00 min 1,4 C -11,3 C
03.04.2007 23:16 3,0 C 2,5 C 88 % 1013 hPa 0,0 l/m 35,1 km/h (5 Bft) N-NO67.5 15 0 min 0 lux 0,00 min 1,2 C -10,5 C
03.04.2007 23:31 3,0 C 2,5 C 88 % 1013 hPa 0,0 l/m 35,1 km/h (5 Bft) NO67.5 35 0 min 0 lux 0,00 min 1,2 C -10,5 C
03.04.2007 23:45 3,0 C 2,5 C 87 % 1013 hPa 0,0 l/m 32,6 km/h (5 Bft) N-NO67.5 25 0 min 0 lux 0,00 min 1,1 C -9,9 C
_ Min-Zeit 03:45 03:30 10:15 17:00 - 01:15 - - - - - 02:45 22:45
Minimum _ 0,5 C -2,0 C 61 % 1013 hPa - 0,0 km/h (0 Bft) - - - - - -2,9 C -11,3 C
_ Max-Zeit 15:00 15:00 22:45 00:00 20:45 17:31 - - 10:46 15:00 20:45 17:00 00:00
Maximum _ 8,2 C 14,4 C 89 % 1019 hPa 0,3 l/m 39,7 km/h
N (6 Bft)
- - 16 min 107 klux 15,00 min 1,8 C 2,7 C
Durchschnitt _ 4,0 C 3,7 C 75 % 1016 hPa #0,6 l/m 19,5 km/h (3 Bft) N - #5:00 h 20,4 klux #30 min. -0,2 C -3,2 C